When you browse on this site, cookies collect data to enhance your experience and personalize the content and advertising you see.
Visit our Privacy Policy to learn more. By continuing to use the site, you agree to this use of cookies and data.

Hourly Weather Veszprem

Today, 10 July, Friday

Time Temperature Precipitation Wind Pressure Humidity
00:00 +19°C° 0 mm 2 mps 740 mmHg 73%
01:00 +19°C° 0 mm 2 mps 740 mmHg 75%
02:00 +18°C° 0 mm 2 mps 740 mmHg 77%
03:00 +19°C° 0 mm 1 mps 740 mmHg 80%
04:00 +18°C° 0 mm 1 mps 740 mmHg 82%
05:00 +19°C° 0 mm 2 mps 740 mmHg 77%
06:00 +20°C° 0 mm 2 mps 740 mmHg 73%
07:00 +23°C° 0 mm 2 mps 740 mmHg 68%
08:00 +25°C° 0 mm 3 mps 740 mmHg 64%
09:00 +26°C° 0 mm 3 mps 740 mmHg 59%
10:00 +28°C° 0 mm 4 mps 740 mmHg 55%
11:00 +29°C° 0 mm 4 mps 740 mmHg 52%
12:00 +30°C° 0 mm 5 mps 740 mmHg 49%
13:00 +32°C° 0 mm 5 mps 739 mmHg 47%
14:00 +32°C° 0 mm 5 mps 739 mmHg 47%
15:00 +32°C° 0 mm 5 mps 739 mmHg 47%
16:00 +32°C° 0 mm 5 mps 738 mmHg 47%
17:00 +29°C° 0 mm 5 mps 738 mmHg 55%
18:00 +28°C° 0 mm 4 mps 738 mmHg 62%
19:00 +26°C° 0 mm 4 mps 737 mmHg 69%
20:00 +25°C° 0 mm 3 mps 737 mmHg 73%
21:00 +24°C° 0 mm 3 mps 738 mmHg 76%
22:00 +21°C° 0 mm 3 mps 738 mmHg 79%
23:00 +21°C° 0 mm 2 mps 738 mmHg 80%

Tomorrow, 11 July, Saturday

Time Temperature Precipitation Wind Pressure Humidity
00:00 +20°C° 0 mm 2 mps 738 mmHg 81%
01:00 +21°C° 0 mm 1 mps 738 mmHg 82%
02:00 +20°C° 0 mm 1 mps 738 mmHg 84%
03:00 +20°C° 0 mm 1 mps 738 mmHg 85%
04:00 +19°C° 0 mm 1 mps 738 mmHg 87%
05:00 +20°C° 0 mm 2 mps 738 mmHg 83%
06:00 +21°C° 0 mm 2 mps 738 mmHg 79%
07:00 +23°C° 0 mm 2 mps 738 mmHg 75%
08:00 +25°C° 0 mm 2 mps 738 mmHg 71%
09:00 +26°C° 0 mm 2 mps 739 mmHg 67%
10:00 +27°C° 0 mm 2 mps 739 mmHg 62%
11:00 +27°C° 0.1 mm 3 mps 739 mmHg 64%
12:00 +27°C° 0.1 mm 5 mps 739 mmHg 65%
13:00 +26°C° 0.1 mm 7 mps 739 mmHg 66%
14:00 +24°C° 0.1 mm 8 mps 739 mmHg 67%
15:00 +22°C° 0.1 mm 9 mps 739 mmHg 67%
16:00 +19°C° 0.1 mm 10 mps 739 mmHg 67%
17:00 +18°C° 0 mm 10 mps 739 mmHg 69%
18:00 +17°C° 0 mm 10 mps 740 mmHg 70%
19:00 +16°C° 0 mm 10 mps 740 mmHg 71%
20:00 +16°C° 0.1 mm 10 mps 741 mmHg 73%
21:00 +15°C° 0.1 mm 9 mps 741 mmHg 74%
22:00 +15°C° 0.1 mm 9 mps 742 mmHg 76%
23:00 +13°C° 0 mm 8 mps 742 mmHg 76%

Day after tomorrow, 12 July, Sunday

Time Temperature Precipitation Wind Pressure Humidity
00:00 +13°C° 0 mm 8 mps 742 mmHg 76%
01:00 +14°C° 0 mm 7 mps 742 mmHg 76%
02:00 +12°C° 0 mm 7 mps 742 mmHg 74%
03:00 +12°C° 0 mm 7 mps 742 mmHg 73%
04:00 +12°C° 0 mm 7 mps 742 mmHg 71%
05:00 +12°C° 0.1 mm 7 mps 742 mmHg 69%
06:00 +12°C° 0.1 mm 7 mps 743 mmHg 68%
07:00 +14°C° 0.1 mm 7 mps 743 mmHg 67%
08:00 +15°C° 0 mm 7 mps 743 mmHg 62%
09:00 +17°C° 0 mm 8 mps 744 mmHg 58%
10:00 +18°C° 0 mm 8 mps 744 mmHg 54%
11:00 +20°C° 0 mm 7 mps 744 mmHg 53%
12:00 +21°C° 0 mm 7 mps 744 mmHg 51%
13:00 +21°C° 0 mm 7 mps 744 mmHg 50%
14:00 +21°C° 0 mm 6 mps 744 mmHg 50%
15:00 +22°C° 0 mm 6 mps 744 mmHg 50%
16:00 +22°C° 0 mm 5 mps 744 mmHg 51%
17:00 +20°C° 0 mm 4 mps 744 mmHg 57%
18:00 +19°C° 0 mm 3 mps 744 mmHg 63%
19:00 +18°C° 0 mm 2 mps 745 mmHg 69%
20:00 +17°C° 0 mm 2 mps 745 mmHg 74%
21:00 +15°C° 0 mm 2 mps 745 mmHg 78%
22:00 +14°C° 0 mm 2 mps 745 mmHg 82%
23:00 +14°C° 0 mm 2 mps 745 mmHg 84%

13 July, Monday

Time Temperature Precipitation Wind Pressure Humidity
00:00 +13°C° 0 mm 1 mps 745 mmHg 85%
01:00 +13°C° 0 mm 1 mps 745 mmHg 87%
02:00 +12°C° 0 mm 2 mps 745 mmHg 88%
03:00 +12°C° 0 mm 2 mps 745 mmHg 89%
04:00 +10°C° 0 mm 2 mps 745 mmHg 90%
05:00 +13°C° 0 mm 2 mps 745 mmHg 84%
06:00 +14°C° 0 mm 2 mps 745 mmHg 77%
07:00 +16°C° 0 mm 3 mps 745 mmHg 71%
08:00 +17°C° 0 mm 3 mps 745 mmHg 63%
09:00 +19°C° 0 mm 3 mps 745 mmHg 55%
10:00 +21°C° 0 mm 4 mps 745 mmHg 47%
11:00 +21°C° 0 mm 4 mps 745 mmHg 45%
12:00 +22°C° 0 mm 4 mps 744 mmHg 42%
13:00 +23°C° 0 mm 4 mps 744 mmHg 40%
14:00 +23°C° 0 mm 4 mps 744 mmHg 41%
15:00 +23°C° 0 mm 4 mps 743 mmHg 41%
16:00 +23°C° 0 mm 4 mps 743 mmHg 42%
17:00 +21°C° 0 mm 3 mps 743 mmHg 49%
18:00 +20°C° 0 mm 3 mps 743 mmHg 56%
19:00 +18°C° 0 mm 2 mps 742 mmHg 64%
20:00 +17°C° 0 mm 2 mps 742 mmHg 68%
21:00 +16°C° 0 mm 2 mps 742 mmHg 73%
22:00 +14°C° 0 mm 1 mps 742 mmHg 78%
23:00 +14°C° 0 mm 1 mps 742 mmHg 79%

14 July, Tuesday

Time Temperature Precipitation Wind Pressure Humidity
00:00 +13°C° 0 mm 1 mps 742 mmHg 80%
01:00 +13°C° 0 mm 1 mps 742 mmHg 82%
02:00 +13°C° 0 mm 1 mps 742 mmHg 83%
03:00 +12°C° 0 mm 1 mps 742 mmHg 84%
04:00 +12°C° 0 mm 1 mps 742 mmHg 85%
05:00 +14°C° 0 mm 1 mps 742 mmHg 78%
06:00 +16°C° 0 mm 1 mps 742 mmHg 72%
07:00 +16°C° 0 mm 0 mps 742 mmHg 65%
08:00 +20°C° 0 mm 1 mps 742 mmHg 60%
09:00 +22°C° 0 mm 1 mps 742 mmHg 54%
10:00 +23°C° 0 mm 1 mps 742 mmHg 49%
11:00 +24°C° 0 mm 1 mps 742 mmHg 46%
12:00 +24°C° 0 mm 1 mps 741 mmHg 44%
13:00 +25°C° 0 mm 1 mps 741 mmHg 41%
14:00 +25°C° 0 mm 1 mps 741 mmHg 41%
15:00 +25°C° 0 mm 1 mps 740 mmHg 41%
16:00 +25°C° 0 mm 1 mps 740 mmHg 41%
17:00 +24°C° 0 mm 1 mps 740 mmHg 48%
18:00 +21°C° 0 mm 2 mps 740 mmHg 55%
19:00 +20°C° 0 mm 2 mps 740 mmHg 62%
20:00 +19°C° 0 mm 2 mps 740 mmHg 66%
21:00 +18°C° 0 mm 2 mps 740 mmHg 69%
22:00 +16°C° 0 mm 2 mps 740 mmHg 72%
23:00 +16°C° 0 mm 2 mps 740 mmHg 73%

15 July, Wednesday

Time Temperature Precipitation Wind Pressure Humidity
00:00 +16°C° 0 mm 2 mps 740 mmHg 74%
01:00 +15°C° 0 mm 2 mps 740 mmHg 76%
02:00 +15°C° 0 mm 1 mps 740 mmHg 77%
03:00 +15°C° 0 mm 1 mps 740 mmHg 77%
04:00 +14°C° 0 mm 1 mps 740 mmHg 78%
05:00 +16°C° 0 mm 1 mps 740 mmHg 74%
06:00 +18°C° 0 mm 1 mps 740 mmHg 69%
07:00 +20°C° 0 mm 1 mps 740 mmHg 65%
08:00 +21°C° 0 mm 1 mps 740 mmHg 61%
09:00 +21°C° 0 mm 2 mps 740 mmHg 57%
10:00 +24°C° 0 mm 2 mps 740 mmHg 53%
11:00 +24°C° 0 mm 2 mps 740 mmHg 52%
12:00 +25°C° 0 mm 2 mps 740 mmHg 50%
13:00 +25°C° 0 mm 2 mps 740 mmHg 49%
14:00 +25°C° 0 mm 2 mps 740 mmHg 48%
15:00 +26°C° 0 mm 1 mps 739 mmHg 47%
16:00 +26°C° 0 mm 1 mps 739 mmHg 46%
17:00 +25°C° 0 mm 1 mps 739 mmHg 52%
18:00 +23°C° 0 mm 1 mps 739 mmHg 58%
19:00 +22°C° 0 mm 1 mps 739 mmHg 63%
20:00 +21°C° 0 mm 1 mps 739 mmHg 65%
21:00 +20°C° 0 mm 1 mps 739 mmHg 67%
22:00 +19°C° 0 mm 1 mps 739 mmHg 69%
23:00 +19°C° 0 mm 1 mps 739 mmHg 69%
Show more